Other Public Products
Issued by NWS Grand Forks, ND

Home | Current Version | Previous Version | Graphics & Text | Print | Product List | Glossary On
Versions: 1 2 3 4 5 6 7 8 9 10 11 12 13 14 15 16 17 18 19 20 21 22 23 24 25 26 27 28 29 30 31 32 33 34 35 36 37 38 39 40 41 42 43 44 45 46 47 48 49 50
000
FPUS83 KFGF 272331
OPUFGF
PRAIRIE TO PINES WEATHER ROUNDUP
NATIONAL WEATHER SERVICE EASTERN NORTH DAKOTA/GRAND FORKS ND
600 PM CDT MON MAR 27 2017

 **SATELLITE DATA USED TO AUGMENT SKY COVER AT AUTOMATED STATIONS**
 *****  WEATHER ACROSS EASTERN NORTH DAKOTA  *****

CITY           SKY/WX    TMP DP  RH WIND       PRES   REMARKS
GRAND FORKS    PTSUNNY   45  40  82 NE7       30.00S
GRAND FORKS AF PTSUNNY   43  41  93 NE8       30.00F
GRAND CITY NWS NOT AVBL
BUXTON         NOT AVBL
DEVILS LAKE    FAIR      50  44  80 E14       29.95S
FARGO          FAIR      57  43  59 N7        29.95F
WAHPETON ARPT  FAIR      55  36  47 E3        29.96S
$$

 *****  WEATHER ACROSS CENTRAL AND WESTERN NORTH DAKOTA  *****

CITY           SKY/WX    TMP DP  RH WIND       PRES   REMARKS
JAMESTOWN      FAIR      58  37  45 SE13      29.92S
BISMARCK       FAIR      64  28  25 SE6       29.89S
MINOT          CLOUDY    38  36  92 NW10      29.97R FOG
MINOT AFB      FOG       36  35  98 N12       29.96S VSB 3/16
GARRISON         N/A     53  40  61 NE9       29.91R
WILLISTON      CLOUDY    57  33  40 E14       29.89R
DICKINSON      CLOUDY    59  23  25 E9        29.84S
HETTINGER      FAIR      60  28  29 SE10      29.88R
$$

 *****  OTHER OBSERVATIONS NORTHEAST NORTH DAKOTA  *****

CITY           SKY/WX    TMP DP  RH WIND       PRES   REMARKS
WALHALLA       NOT AVBL
LANGDON        FOG       37  37 100 NE13      30.00S VSB<1/4
CAVALIER       CLOUDY    36  36 100 N5        30.03S FOG
GRAFTON        CLOUDY    37  37 100 NE8       30.04S FOG
CANDO          NOT AVBL
FORT TOTTEN      N/A     57  39  51 SE7       29.95S
ROLLA          FOG       36  36 100 NE9       30.00S VSB 1/4
RUGBY          NOT AVBL
 ***** THE ABOVE OBSERVATIONS ARE NON NWS ARE NOT QUALITY
        CONTROLLED AND MAY MIS-REPORT RAIN FOR SNOW...
$$

 *****  OTHER OBSERVATIONS SOUTHEAST NORTH DAKOTA *****

CITY           SKY/WX    TMP DP  RH WIND       PRES   REMARKS
COOPERSTOWN    FAIR      48  45  87 E8        29.98R
VALLEY CITY    FAIR      55  41  58 NE9       29.97R
OAKES          NOT AVBL
GWINNER        CLEAR     57  37  47 MISG      29.95R
SHEYENNE NWR     N/A     59  38  45 E5        29.95S
BUFFALO        NOT AVBL
WYNDMERE         N/A     57  39  51 SE3         N/A
 ***** THE ABOVE OBSERVATIONS ARE NON NWS ARE NOT QUALITY
       CONTROLLED AND MAY MIS-REPORT RAIN FOR SNOW...
$$

  *****  WEATHER ACROSS NORTHERN MINNESOTA  *****

CITY           SKY/WX    TMP DP  RH WIND       PRES   REMARKS
FLAG ISLAND    CLOUDY    43  30  61 CALM      30.00S
WARROAD        FAIR      45  37  76 NE3       30.01R
ROSEAU         FAIR      48  39  71 W5        30.00R
HALLOCK        FAIR      41  37  87 N3        30.02F
THF RVR FALLS  FAIR     N/A N/A N/A NW9       30.01
HALSTAD          N/A     50  45  81 N14         N/A
FOSSTON        FAIR      57  34  41 NW5       29.98R
BAUDETTE       FAIR      51  31  46 N9        29.98S
WASKISH        FAIR      45  34  65 W7        29.98R
CROOKSTON      FAIR      43  43 100 NE6       30.01F
$$
  *****  WEATHER ACROSS CENTRAL AND WEST MINNESOTA  *****

CITY           SKY/WX    TMP DP  RH WIND       PRES   REMARKS
BEMIDJI        FAIR      55  25  31 CALM      29.96S
PARK RAPIDS    FAIR      59  27  29 CALM      29.94S
WADENA         FAIR      55  36  47 CALM      29.95S
DETROIT LAKES  FAIR      55  36  47 CALM      29.96S
MOORHEAD       FAIR      55  45  67 NE7       29.97R
FERGUS FALLS   PTSUNNY   57  39  51 W6        29.98R
ELBOW LAKE     FAIR      56  35  45 CALM      29.96S
MORRIS MN      FAIR      57  34  41 CALM      29.95R
STAPLES        FAIR      55  34  44 CALM      29.95S
WHEATON        FAIR      57  34  41 CALM      29.97R
$$
  *****  WEATHER ELSEWHERE ACROSS MINNESOTA  *****

CITY           SKY/WX    TMP DP  RH WIND       PRES   REMARKS
DULUTH         FAIR      48  35  60 SE7       29.97R
INTRNTL FALLS  FAIR      53  25  33 NE7       29.97S
ELY            FAIR      54  19  26 CALM      29.96S
CLOQUET        FAIR      52  32  46 E3        29.97R
BRAINERD       FAIR      55  32  41 S3        29.96S
HIBBING        FAIR      54  23  30 CALM      29.96R
ALEXANDRIA     FAIR      56  35  45 E3        29.95S
SAINT CLOUD    FAIR      56  36  47 NE6       29.95S
MINNEAPOLIS    FAIR      56  33  42 SE7       29.94S
$$

  *****  WEATHER ACROSS SOUTH DAKOTA  *****

CITY           SKY/WX    TMP DP  RH WIND       PRES   REMARKS
SIOUX FALLS    FAIR      58  39  49 SE9       29.93R
BROOKINGS      PTSUNNY   57  36  45 E9          N/A
WATERTOWN      CLOUDY    55  35  47 E8        29.93S
HURON          CLOUDY    59  34  39 SE6       29.91S
SISSETON         N/A     57  39  51 SE3       29.94S
ABERDEEN       CLOUDY    59  33  37 E7        29.92S
MITCHELL       FAIR      61  35  37 SE7       29.92S
PIERRE         FAIR      59  31  34 E10       29.88S
MOBRIDGE       PTSUNNY   61  34  36 S12       29.88R
RAPID CITY     PTSUNNY   60  35  39 VRB7      29.83S
$$

  *****  SOME WEATHER IN NEARBY STATES *****

CITY           SKY/WX    TMP DP  RH WIND       PRES   REMARKS
GLASGOW MT     FAIR      57  33  40 E10       29.85S
GREAT FALLS MT CLOUDY    52  27  38 W3        29.86R
CHEYENNE WY    CLOUDY    55  24  30 S8        29.81F
SCOTTSBLUFF NE CLOUDY    63  29  27 S9        29.78F
OMAHA NE       CLOUDY    52  40  63 CALM      29.96S
DES MOINES IA  CLOUDY    51  42  71 N7        29.93S
DAVENPORT IA   CLOUDY    51  46  83 N10       29.91S
CHICAGO IL     CLOUDY    46  41  82 NE9       29.90S
EAU CLAIRE WI  CLOUDY    47  37  68 E3        29.96R
LA CROSSE WI   CLOUDY    48  41  76 NW7       29.95R
$$

  *****  SOME NATIONAL WEATHER *****

CITY           SKY/WX    TMP DP  RH WIND       PRES   REMARKS
LA GUARDIA NY  MOCLDY    49  43  80 NE7       29.99R
RALEIGH NC     MOCLDY    76  57  51 S10       29.97S
ATLANTA GA     PTSUNNY   77  55  46 SW12      29.94F
NEW ORLEANS LA FAIR      78  65  63 S15       29.92F
OKLAHOMA CITY  FAIR      69  46  43 NE6       29.88F
ALBUQUERQUE NM PTSUNNY   67  17  14 SW14      29.81F
SALT LAKE CITY LGT RAIN  43  40  89 W6        29.87R
LOS ANGELES CA FAIR      67  52  58 W24G30    29.96F
BOISE ID       PTSUNNY   55  32  41 NW15G24   30.04R
SEATTLE WA     CLOUDY    49  44  83 W8        30.18R
$$

*** WEATHER ACROSS MANITOBA...SASKATCHEWAN AND ONTARIO ***
                ***ONTARIO***

CITY           SKY/WX    TMP DP  RH WIND       PRES   REMARKS
GERALDTON      MOSUNNY   48  21  34 N9        29.94R
THUNDER BAY    MOSUNNY   48  36  61 NE6       29.96
SIOUX LOOKOUT  CLOUDY    45  30  57 NW5       30.00R
TORONTO        MOCLDY    55  52  88 W7        29.87S
BIG TROUT LK   FLURRIES  23  12  63 N10G17    30.09S WCI  12
PICKLE LAKE    PTSUNNY   37  23  56 VRB3      30.00R
DRYDEN         CLOUDY    48  30  49 N5        29.99R
KENORA         PTSUNNY   48  28  46 NW7       30.00S
$$
                *** MANITOBA***

CITY           SKY/WX    TMP DP  RH WIND       PRES   REMARKS
BRANDON        CLOUDY    41  32  70 E18       30.04R
DAUPHIN        CLOUDY    36  28  75 NE8       30.11R
ISLAND LAKE    PTSUNNY   27  16  63 N8        30.16R WCI  18
PILOT MOUND      N/A     36  34  93 E9          N/A
THE PAS        MOSUNNY   30  19  64 VRB6      30.17S WCI  24
THOMPSON       PTSUNNY   23  16  74 N8        30.24R WCI  14
WINNIPEG       MOSUNNY   41  34  75 NE10      30.05S
LYNN LAKE      SUNNY     27  10  50 SE8       30.20F WCI  18
CHURCHILL      CRYSTALS   9   7  92 N12       30.32R WCI  -6
GILLAM         MOSUNNY   21  12  68 N12       30.24R WCI   9
$$
                ***SASKATCHEWAN***

CITY           SKY/WX    TMP DP  RH WIND       PRES   REMARKS
ESTEVAN        CLOUDY    37  36  93 E16G22    29.96F FOG
KINDERSLEY     CLOUDY    43  36  75 E16       29.90S
LLOYDMINSTER   CLOUDY    34  34 100 SE15      29.94R WCI  24
PRINCE ALBERT  CLOUDY    39  25  56 SE10      30.07R
REGINA         PTSUNNY   43  36  75 E10       29.97S
YORKTON        CLOUDY    36  32  87 SE13      30.05R



USA.gov is the U.S. government's official web portal to all federal, state and local government web resources and services.